Weather in Pskovskoye

Russia / Belgorod Oblast     50°54′46″N   35°58′08″E
temp.,
°C
wind,
m/s
gust,
m/s
humid.,
%
clouds,
%
prec.,
mm/h
press.,
hPa
HPBL,
m
13 april, tue
tue1300:00+11se497763 0.0 1022158
03:00+10se3585100 0.0 102283
06:00+9se2388100 0.0 102226
09:00+14ese467095 0.0 1022355
12:00+17se6949100 0.0 10211110
15:00+19sse61047100 0.0 10192060
18:00+14se4967100 0.0 1019461
21:00+13s5880100 0.1 1020356
14 april, wed
wed1400:00+11sse378565 0.0 1020448
03:00+8sse3492100 0.0 102074
06:00+8sse239050 0.0 102051
09:00+10se2276100 0.0 1019225
12:00+12se2369100 0.1 1018543
15:00+14ssw3463100 0.3 1017994
18:00+13se2371100 0.7 1016411
21:00+11ese2379100 0.8 101644
15 april, thu
thu1500:00+9se2282100 0.0 101531
03:00+9se3582100 0.1 1015127
06:00+9se228394 0.3 101438
09:00+12sse236756 0.3 1014530
12:00+15s4451100 0.1 10131628
15:00+15s565282 0.1 10131521
18:00+14s455961 0.0 1013752
21:00+10s2387100 1.4 1014191
16 april, fri
fri1600:00+10se3685100 0.3 1013261
03:00+9se489195 1.0 1013231
06:00+7sse379172 0.5 1013185
09:00+10s467317 0.5 1014736
12:00+12sse685799 0.1 10141641
15:00+12ssw784976 0.1 10151715
18:00+11s465551 0.0 10161276
21:00+7s22735 0.0 101733
17 april, sat
sat1700:00+6sse227612 0.0 101817
03:00+6e2279100 0.0 101820
06:00+5ese118099 0.0 101910
09:00+9wnw2267100 0.0 1018364
12:00+11nnw3360100 0.0 10191317
15:00+11nnw2363100 0.1 1019957
18:00+11nne3263100 0.1 1019424
21:00+7e2387100 0.1 102168